Time,TemperatureF,DewpointF,PressureIn,WindDirection,WindDirectionDegrees,WindSpeedMPH,WindSpeedGustMPH,Humidity,HourlyPrecipIn,Conditions,Clouds,dailyrainin,SoftwareType,DateUTC
2013-02-09 00:00:00,35.2,13.3,29.91,NNW,338,0.0,0.0,40,0.00,,,0.00,WSDL version 420,2013-02-09 06:00:00,
2013-02-09 00:06:00,34.8,12.9,29.91,NNW,338,0.0,0.0,40,0.00,,,0.00,WSDL version 420,2013-02-09 06:06:00,
2013-02-09 00:12:00,34.9,13.1,29.91,NNW,338,0.0,0.0,40,0.00,,,0.00,WSDL version 420,2013-02-09 06:12:00,
2013-02-09 00:18:00,35.0,13.1,29.91,NNW,338,0.0,0.0,40,0.00,,,0.00,WSDL version 420,2013-02-09 06:18:00,
2013-02-09 00:24:00,34.9,13.0,29.91,NNW,338,0.0,0.0,40,0.00,,,0.00,WSDL version 420,2013-02-09 06:24:00,
2013-02-09 00:30:00,34.9,13.0,29.91,NNW,338,0.2,1.6,40,0.00,,,0.00,WSDL version 420,2013-02-09 06:30:00,
2013-02-09 00:36:00,34.9,13.1,29.91,NNW,338,0.0,1.6,41,0.00,,,0.00,WSDL version 420,2013-02-09 06:36:00,
2013-02-09 00:42:00,34.9,13.5,29.91,NNW,338,0.0,0.0,40,0.00,,,0.00,WSDL version 420,2013-02-09 06:42:00,
2013-02-09 00:48:00,34.8,12.9,29.91,NNW,338,0.0,0.0,40,0.00,,,0.00,WSDL version 420,2013-02-09 06:48:00,
2013-02-09 00:54:00,34.3,12.5,29.91,NNW,338,0.0,0.0,40,0.00,,,0.00,WSDL version 420,2013-02-09 06:54:00,
2013-02-09 01:00:00,34.2,12.4,29.91,NNW,338,0.0,0.0,40,0.00,,,0.00,WSDL version 420,2013-02-09 07:00:00,
2013-02-09 01:06:00,34.0,12.2,29.91,NNW,338,0.0,0.0,40,0.00,,,0.00,WSDL version 420,2013-02-09 07:06:00,
2013-02-09 01:12:00,34.0,12.8,29.91,NNW,338,0.0,0.0,41,0.00,,,0.00,WSDL version 420,2013-02-09 07:12:00,
2013-02-09 01:18:00,34.2,12.9,29.91,NNW,338,0.0,0.0,41,0.00,,,0.00,WSDL version 420,2013-02-09 07:18:00,
2013-02-09 01:24:00,34.2,12.9,29.91,NNW,338,0.0,0.0,41,0.00,,,0.00,WSDL version 420,2013-02-09 07:24:00,
2013-02-09 01:30:00,34.1,12.8,29.91,NNW,338,0.0,0.0,41,0.00,,,0.00,WSDL version 420,2013-02-09 07:30:00,
2013-02-09 01:36:00,34.2,12.9,29.91,NNW,338,0.0,0.0,41,0.00,,,0.00,WSDL version 420,2013-02-09 07:36:00,
2013-02-09 01:42:00,34.0,12.8,29.91,NNW,338,0.0,0.0,41,0.00,,,0.00,WSDL version 420,2013-02-09 07:42:00,
2013-02-09 01:48:00,33.8,12.6,29.91,NNW,338,0.4,0.9,41,0.00,,,0.00,WSDL version 420,2013-02-09 07:48:00,
2013-02-09 01:54:00,33.8,12.6,29.91,NNW,338,0.0,1.1,41,0.00,,,0.00,WSDL version 420,2013-02-09 07:54:00,
2013-02-09 02:00:00,33.8,12.7,29.88,NNW,338,0.0,1.3,41,0.00,,,0.00,WSDL version 420,2013-02-09 08:00:00,
2013-02-09 02:06:00,33.8,13.1,29.88,NNW,338,0.0,1.3,42,0.00,,,0.00,WSDL version 420,2013-02-09 08:06:00,
2013-02-09 02:12:00,33.8,13.1,29.88,NNW,338,0.0,1.3,42,0.00,,,0.00,WSDL version 420,2013-02-09 08:12:00,
2013-02-09 02:18:00,33.6,13.0,29.88,NNW,338,0.0,2.0,42,0.00,,,0.00,WSDL version 420,2013-02-09 08:18:00,
2013-02-09 02:24:00,33.7,13.1,29.88,West,278,0.0,1.6,42,0.00,,,0.00,WSDL version 420,2013-02-09 08:24:00,
2013-02-09 02:30:00,33.8,13.1,29.88,North,360,0.0,2.0,42,0.00,,,0.00,WSDL version 420,2013-02-09 08:30:00,
2013-02-09 02:36:00,33.8,13.1,29.88,WSW,248,0.0,2.0,42,0.00,,,0.00,WSDL version 420,2013-02-09 08:36:00,
2013-02-09 02:42:00,33.8,13.1,29.88,NE,45,0.0,2.0,42,0.00,,,0.00,WSDL version 420,2013-02-09 08:42:00,
2013-02-09 02:48:00,33.8,13.1,29.88,NE,49,0.0,2.2,42,0.00,,,0.00,WSDL version 420,2013-02-09 08:48:00,
2013-02-09 02:54:00,33.8,13.1,29.88,ESE,113,0.0,2.2,42,0.00,,,0.00,WSDL version 420,2013-02-09 08:54:00,
2013-02-09 03:00:00,33.8,13.2,29.88,NW,315,0.6,2.0,43,0.00,,,0.00,WSDL version 420,2013-02-09 09:00:00,
2013-02-09 03:06:00,33.6,13.5,29.88,NW,315,0.0,2.0,43,0.00,,,0.00,WSDL version 420,2013-02-09 09:06:00,
2013-02-09 03:12:00,33.5,13.2,29.88,West,270,0.0,2.0,43,0.00,,,0.00,WSDL version 420,2013-02-09 09:12:00,
2013-02-09 03:18:00,33.5,13.4,29.88,West,270,0.0,1.1,43,0.00,,,0.00,WSDL version 420,2013-02-09 09:18:00,
2013-02-09 03:24:00,33.2,12.8,29.88,West,270,0.4,1.6,42,0.00,,,0.00,WSDL version 420,2013-02-09 09:24:00,
2013-02-09 03:30:00,33.2,13.1,29.91,West,270,0.0,1.6,43,0.00,,,0.00,WSDL version 420,2013-02-09 09:30:00,
2013-02-09 03:36:00,33.1,13.0,29.91,West,270,0.0,0.0,43,0.00,,,0.00,WSDL version 420,2013-02-09 09:36:00,
2013-02-09 03:42:00,33.5,13.4,29.91,West,270,0.0,0.0,43,0.00,,,0.00,WSDL version 420,2013-02-09 09:42:00,
2013-02-09 03:48:00,33.4,13.3,29.91,West,270,0.0,0.0,43,0.00,,,0.00,WSDL version 420,2013-02-09 09:48:00,
2013-02-09 03:54:00,33.4,13.3,29.91,West,270,0.0,0.0,43,0.00,,,0.00,WSDL version 420,2013-02-09 09:54:00,
2013-02-09 04:00:00,33.4,13.3,29.91,West,270,0.0,0.0,43,0.00,,,0.00,WSDL version 420,2013-02-09 10:00:00,
2013-02-09 04:06:00,33.6,13.5,29.91,West,270,0.0,0.0,43,0.00,,,0.00,WSDL version 420,2013-02-09 10:06:00,
2013-02-09 04:12:00,33.6,13.5,29.91,West,270,0.0,0.0,43,0.00,,,0.00,WSDL version 420,2013-02-09 10:12:00,
2013-02-09 04:18:00,33.6,13.5,29.91,West,270,0.0,0.0,43,0.00,,,0.00,WSDL version 420,2013-02-09 10:18:00,
2013-02-09 04:24:00,33.4,13.3,29.91,West,270,0.0,0.0,43,0.00,,,0.00,WSDL version 420,2013-02-09 10:24:00,
2013-02-09 04:30:00,33.0,12.4,29.91,West,270,0.0,0.0,42,0.00,,,0.00,WSDL version 420,2013-02-09 10:30:00,
2013-02-09 04:36:00,33.1,12.9,29.91,West,270,0.0,0.0,43,0.00,,,0.00,WSDL version 420,2013-02-09 10:36:00,
2013-02-09 04:42:00,33.1,13.0,29.91,West,270,0.0,0.0,43,0.00,,,0.00,WSDL version 420,2013-02-09 10:42:00,
2013-02-09 04:48:00,33.1,13.0,29.91,West,270,0.0,0.0,43,0.00,,,0.00,WSDL version 420,2013-02-09 10:48:00,
2013-02-09 04:54:00,32.9,12.9,29.91,West,270,0.0,0.0,43,0.00,,,0.00,WSDL version 420,2013-02-09 10:54:00,
2013-02-09 05:00:00,32.9,12.8,29.91,West,270,0.0,0.0,43,0.00,,,0.00,WSDL version 420,2013-02-09 11:00:00,
2013-02-09 05:06:00,32.6,12.0,29.91,West,270,0.0,0.0,42,0.00,,,0.00,WSDL version 420,2013-02-09 11:06:00,
2013-02-09 05:12:00,32.0,13.4,29.91,West,270,0.0,0.0,42,0.00,,,0.00,WSDL version 420,2013-02-09 11:12:00,
2013-02-09 05:18:00,32.0,13.9,29.91,West,270,0.0,0.0,43,0.00,,,0.00,WSDL version 420,2013-02-09 11:18:00,
2013-02-09 05:24:00,31.8,14.0,29.91,West,270,0.0,0.0,43,0.00,,,0.00,WSDL version 420,2013-02-09 11:24:00,
2013-02-09 05:30:00,31.9,14.1,29.91,West,270,0.0,0.0,43,0.00,,,0.00,WSDL version 420,2013-02-09 11:30:00,
2013-02-09 05:36:00,32.0,14.2,29.91,West,270,0.0,0.0,43,0.00,,,0.00,WSDL version 420,2013-02-09 11:36:00,
2013-02-09 05:42:00,32.0,14.2,29.91,West,270,0.0,0.0,43,0.00,,,0.00,WSDL version 420,2013-02-09 11:42:00,
2013-02-09 05:48:00,31.9,14.1,29.91,West,270,0.0,0.0,43,0.00,,,0.00,WSDL version 420,2013-02-09 11:48:00,
2013-02-09 05:54:00,31.5,13.8,29.91,West,270,0.0,0.0,43,0.00,,,0.00,WSDL version 420,2013-02-09 11:54:00,
2013-02-09 06:00:00,31.3,13.5,29.91,West,270,0.0,0.0,43,0.00,,,0.00,WSDL version 420,2013-02-09 12:00:00,
2013-02-09 06:06:00,31.3,13.5,29.91,West,270,0.0,0.0,43,0.00,,,0.00,WSDL version 420,2013-02-09 12:06:00,
2013-02-09 06:12:00,31.2,13.5,29.91,West,270,0.0,0.0,43,0.00,,,0.00,WSDL version 420,2013-02-09 12:12:00,
2013-02-09 06:18:00,31.0,13.3,29.91,West,270,0.0,0.0,43,0.00,,,0.00,WSDL version 420,2013-02-09 12:18:00,
2013-02-09 06:24:00,30.9,13.2,29.91,SSE,158,0.3,1.6,43,0.00,,,0.00,WSDL version 420,2013-02-09 12:24:00,
2013-02-09 06:30:00,31.0,13.7,29.91,SSE,158,0.0,1.6,44,0.00,,,0.00,WSDL version 420,2013-02-09 12:30:00,
2013-02-09 06:36:00,31.1,13.8,29.91,West,270,0.0,0.9,44,0.00,,,0.00,WSDL version 420,2013-02-09 12:36:00,
2013-02-09 06:42:00,31.1,13.8,29.91,West,270,0.0,0.0,44,0.00,,,0.00,WSDL version 420,2013-02-09 12:42:00,
2013-02-09 06:48:00,30.9,13.7,29.91,West,270,0.0,0.0,44,0.00,,,0.00,WSDL version 420,2013-02-09 12:48:00,
2013-02-09 06:54:00,30.7,13.5,29.91,West,270,0.0,0.0,44,0.00,,,0.00,WSDL version 420,2013-02-09 12:54:00,
2013-02-09 07:00:00,30.8,13.5,29.88,West,270,0.0,1.1,44,0.00,,,0.00,WSDL version 420,2013-02-09 13:00:00,
2013-02-09 07:06:00,30.8,13.6,29.88,SSE,158,0.4,1.3,45,0.00,,,0.00,WSDL version 420,2013-02-09 13:06:00,
2013-02-09 07:12:00,30.9,14.0,29.88,NNW,347,0.5,3.1,45,0.00,,,0.00,WSDL version 420,2013-02-09 13:12:00,
2013-02-09 07:18:00,31.1,14.3,29.88,NE,45,0.8,3.1,45,0.00,,,0.00,WSDL version 420,2013-02-09 13:18:00,
2013-02-09 07:24:00,31.4,14.7,29.88,NE,45,0.0,2.5,46,0.00,,,0.00,WSDL version 420,2013-02-09 13:24:00,
2013-02-09 07:30:00,31.5,14.6,29.91,NE,50,0.0,1.1,45,0.00,,,0.00,WSDL version 420,2013-02-09 13:30:00,
2013-02-09 07:36:00,31.6,14.8,29.91,WNW,293,0.0,1.1,45,0.00,,,0.00,WSDL version 420,2013-02-09 13:36:00,
2013-02-09 07:42:00,31.9,15.4,29.91,WNW,293,0.0,0.0,46,0.00,,,0.00,WSDL version 420,2013-02-09 13:42:00,
2013-02-09 07:48:00,32.2,13.7,29.91,WNW,293,0.0,0.9,46,0.00,,,0.00,WSDL version 420,2013-02-09 13:48:00,
2013-02-09 07:54:00,32.5,14.0,29.91,East,90,0.6,1.3,46,0.00,,,0.00,WSDL version 420,2013-02-09 13:54:00,
2013-02-09 08:00:00,32.6,14.5,29.91,North,360,0.9,2.5,47,0.00,,,0.00,WSDL version 420,2013-02-09 14:00:00,
2013-02-09 08:06:00,32.9,14.8,29.91,East,79,1.0,4.0,47,0.00,,,0.00,WSDL version 420,2013-02-09 14:06:00,
2013-02-09 08:12:00,33.2,15.1,29.91,ENE,68,1.5,4.0,47,0.00,,,0.00,WSDL version 420,2013-02-09 14:12:00,
2013-02-09 08:18:00,33.5,15.5,29.91,ESE,107,1.9,3.6,47,0.00,,,0.00,WSDL version 420,2013-02-09 14:18:00,
2013-02-09 08:24:00,33.9,15.6,29.91,ENE,59,1.1,3.8,46,0.00,,,0.00,WSDL version 420,2013-02-09 14:24:00,
2013-02-09 08:30:00,34.2,15.6,29.91,WSW,251,1.6,3.8,46,0.00,,,0.00,WSDL version 420,2013-02-09 14:30:00,
2013-02-09 08:36:00,34.5,15.7,29.91,ESE,106,1.3,3.8,46,0.00,,,0.00,WSDL version 420,2013-02-09 14:36:00,
2013-02-09 08:42:00,34.8,15.9,29.91,East,82,1.6,3.1,46,0.00,,,0.00,WSDL version 420,2013-02-09 14:42:00,
2013-02-09 08:48:00,35.2,15.9,29.91,East,93,2.7,4.7,44,0.00,,,0.00,WSDL version 420,2013-02-09 14:48:00,
2013-02-09 08:54:00,35.4,15.8,29.91,ENE,70,1.7,4.7,44,0.00,,,0.00,WSDL version 420,2013-02-09 14:54:00,
2013-02-09 09:00:00,35.6,15.4,29.88,SE,129,2.3,3.8,43,0.00,,,0.00,WSDL version 420,2013-02-09 15:00:00,
2013-02-09 09:06:00,35.9,15.6,29.88,East,100,1.6,3.4,43,0.00,,,0.00,WSDL version 420,2013-02-09 15:06:00,
2013-02-09 09:12:00,36.3,15.5,29.88,NE,39,2.1,5.4,42,0.00,,,0.00,WSDL version 420,2013-02-09 15:12:00,
2013-02-09 09:18:00,36.7,15.8,29.88,East,90,1.5,5.4,42,0.00,,,0.00,WSDL version 420,2013-02-09 15:18:00,
2013-02-09 09:24:00,37.0,15.8,29.88,ENE,75,2.2,4.3,41,0.00,,,0.00,WSDL version 420,2013-02-09 15:24:00,
2013-02-09 09:30:00,37.0,15.5,29.91,ENE,70,2.5,4.7,41,0.00,,,0.00,WSDL version 420,2013-02-09 15:30:00,
2013-02-09 09:36:00,37.3,15.3,29.91,ENE,76,2.2,4.7,40,0.00,,,0.00,WSDL version 420,2013-02-09 15:36:00,
2013-02-09 09:42:00,37.8,15.6,29.91,SE,132,2.1,3.8,40,0.00,,,0.00,WSDL version 420,2013-02-09 15:42:00,
2013-02-09 09:48:00,38.3,16.1,29.91,ESE,115,1.5,3.8,40,0.00,,,0.00,WSDL version 420,2013-02-09 15:48:00,
2013-02-09 09:54:00,38.7,16.3,29.91,NE,38,1.9,3.1,39,0.00,,,0.00,WSDL version 420,2013-02-09 15:54:00,
2013-02-09 10:00:00,38.8,16.1,29.91,ESE,105,2.5,3.4,39,0.00,,,0.00,WSDL version 420,2013-02-09 16:00:00,
2013-02-09 10:06:00,39.1,16.3,29.91,ESE,113,1.2,3.1,39,0.00,,,0.00,WSDL version 420,2013-02-09 16:06:00,
2013-02-09 10:12:00,39.2,15.5,29.91,NNW,341,2.3,3.6,37,0.00,,,0.00,WSDL version 420,2013-02-09 16:12:00,
2013-02-09 10:18:00,39.5,15.9,29.91,ENE,61,1.6,3.6,37,0.00,,,0.00,WSDL version 420,2013-02-09 16:18:00,
2013-02-09 10:24:00,39.7,16.0,29.91,East,90,2.3,4.5,38,0.00,,,0.00,WSDL version 420,2013-02-09 16:24:00,
2013-02-09 10:30:00,40.1,16.5,29.88,SE,135,0.8,4.5,38,0.00,,,0.00,WSDL version 420,2013-02-09 16:30:00,
2013-02-09 10:36:00,40.2,14.9,29.88,NW,309,2.2,3.1,35,0.00,,,0.00,WSDL version 420,2013-02-09 16:36:00,
2013-02-09 10:42:00,40.5,15.0,29.91,NNE,20,1.5,5.4,35,0.00,,,0.00,WSDL version 420,2013-02-09 16:42:00,
2013-02-09 10:48:00,40.9,14.4,29.91,SSE,154,1.6,5.4,34,0.00,,,0.00,WSDL version 420,2013-02-09 16:48:00,
2013-02-09 10:54:00,41.2,14.4,29.91,WNW,295,1.7,3.8,32,0.00,,,0.00,WSDL version 420,2013-02-09 16:54:00,
2013-02-09 11:00:00,41.5,14.6,29.91,NW,313,1.7,3.8,33,0.00,,,0.00,WSDL version 420,2013-02-09 17:00:00,
2013-02-09 11:06:00,42.3,15.8,29.91,SE,141,2.6,4.5,34,0.00,,,0.00,WSDL version 420,2013-02-09 17:06:00,
2013-02-09 11:12:00,42.8,15.3,29.91,ESE,107,2.8,4.9,32,0.00,,,0.00,WSDL version 420,2013-02-09 17:12:00,
2013-02-09 11:18:00,42.4,14.0,29.91,ENE,70,2.7,4.9,31,0.00,,,0.00,WSDL version 420,2013-02-09 17:18:00,
2013-02-09 11:24:00,42.6,14.4,29.91,NNE,16,1.3,4.0,31,0.00,,,0.00,WSDL version 420,2013-02-09 17:24:00,
2013-02-09 11:30:00,42.8,13.8,29.91,NNE,23,2.6,4.3,30,0.00,,,0.00,WSDL version 420,2013-02-09 17:30:00,
2013-02-09 11:36:00,43.0,13.7,29.91,NE,39,2.1,4.9,30,0.00,,,0.00,WSDL version 420,2013-02-09 17:36:00,
2013-02-09 11:42:00,43.5,14.4,29.88,West,276,1.3,4.9,31,0.00,,,0.00,WSDL version 420,2013-02-09 17:42:00,
2013-02-09 11:48:00,43.7,14.3,29.88,SSE,148,1.9,3.8,30,0.00,,,0.00,WSDL version 420,2013-02-09 17:48:00,
2013-02-09 11:54:00,43.6,13.9,29.88,NW,321,2.4,4.9,29,0.00,,,0.00,WSDL version 420,2013-02-09 17:54:00,
2013-02-09 12:00:00,43.8,14.3,29.88,ESE,115,1.8,4.9,30,0.00,,,0.00,WSDL version 420,2013-02-09 18:00:00,
2013-02-09 12:06:00,44.2,14.5,29.88,NW,318,2.3,3.6,29,0.00,,,0.00,WSDL version 420,2013-02-09 18:06:00,
2013-02-09 12:12:00,44.5,14.4,29.88,NE,45,2.3,3.6,29,0.00,,,0.00,WSDL version 420,2013-02-09 18:12:00,
2013-02-09 12:18:00,44.6,13.9,29.88,ESE,110,3.2,5.4,29,0.00,,,0.00,WSDL version 420,2013-02-09 18:18:00,
2013-02-09 12:24:00,44.8,14.5,29.88,NE,45,1.3,4.7,29,0.00,,,0.00,WSDL version 420,2013-02-09 18:24:00,
2013-02-09 12:30:00,44.9,13.7,29.88,North,354,2.7,4.0,28,0.00,,,0.00,WSDL version 420,2013-02-09 18:30:00,
2013-02-09 12:36:00,45.5,15.1,29.88,ENE,76,1.3,4.0,29,0.00,,,0.00,WSDL version 420,2013-02-09 18:36:00,
2013-02-09 12:42:00,46.1,15.6,29.85,North,10,1.5,3.4,29,0.00,,,0.00,WSDL version 420,2013-02-09 18:42:00,
2013-02-09 12:48:00,46.3,15.0,29.85,East,84,1.1,2.9,28,0.00,,,0.00,WSDL version 420,2013-02-09 18:48:00,
2013-02-09 12:54:00,47.1,15.6,29.85,SSE,161,3.4,6.5,28,0.00,,,0.00,WSDL version 420,2013-02-09 18:54:00,
2013-02-09 13:00:00,47.8,16.3,29.85,ESE,116,2.2,6.5,28,0.00,,,0.00,WSDL version 420,2013-02-09 19:00:00,
2013-02-09 13:06:00,48.5,16.9,29.85,SSE,152,4.5,6.0,28,0.00,,,0.00,WSDL version 420,2013-02-09 19:06:00,
2013-02-09 13:12:00,48.9,17.0,29.83,SE,135,1.9,6.0,28,0.00,,,0.00,WSDL version 420,2013-02-09 19:12:00,
2013-02-09 13:18:00,48.7,16.2,29.83,SE,139,2.2,4.3,27,0.00,,,0.00,WSDL version 420,2013-02-09 19:18:00,
2013-02-09 13:24:00,48.9,16.4,29.83,SSE,158,2.9,6.0,27,0.00,,,0.00,WSDL version 420,2013-02-09 19:24:00,
2013-02-09 13:30:00,49.0,16.5,29.83,SE,135,0.6,4.9,27,0.00,,,0.00,WSDL version 420,2013-02-09 19:30:00,
2013-02-09 13:36:00,49.1,16.6,29.83,SE,135,2.6,4.0,27,0.00,,,0.00,WSDL version 420,2013-02-09 19:36:00,
2013-02-09 13:42:00,49.2,16.6,29.83,SE,135,2.0,4.0,27,0.00,,,0.00,WSDL version 420,2013-02-09 19:42:00,
2013-02-09 13:48:00,49.4,16.8,29.83,ESE,122,2.6,3.6,27,0.00,,,0.00,WSDL version 420,2013-02-09 19:48:00,
2013-02-09 13:54:00,49.1,16.6,29.83,SE,127,2.8,4.0,27,0.00,,,0.00,WSDL version 420,2013-02-09 19:54:00,
2013-02-09 14:00:00,49.1,16.5,29.83,East,90,1.7,4.0,27,0.00,,,0.00,WSDL version 420,2013-02-09 20:00:00,
2013-02-09 14:06:00,48.8,16.2,29.83,NNE,28,1.4,3.1,27,0.00,,,0.00,WSDL version 420,2013-02-09 20:06:00,
2013-02-09 14:12:00,48.8,16.2,29.83,East,90,1.0,2.9,27,0.00,,,0.00,WSDL version 420,2013-02-09 20:12:00,
2013-02-09 14:18:00,49.1,16.6,29.83,East,90,0.2,2.5,27,0.00,,,0.00,WSDL version 420,2013-02-09 20:18:00,
2013-02-09 14:24:00,49.3,16.7,29.83,East,90,1.6,3.1,27,0.00,,,0.00,WSDL version 420,2013-02-09 20:24:00,
2013-02-09 14:30:00,49.5,16.9,29.80,East,90,0.9,3.1,27,0.00,,,0.00,WSDL version 420,2013-02-09 20:30:00,
2013-02-09 14:36:00,49.6,16.5,29.80,East,98,1.1,4.0,26,0.00,,,0.00,WSDL version 420,2013-02-09 20:36:00,
2013-02-09 14:42:00,49.8,16.6,29.80,SSE,158,2.8,3.8,27,0.00,,,0.00,WSDL version 420,2013-02-09 20:42:00,
2013-02-09 14:48:00,50.1,16.6,29.80,ESE,113,0.4,3.8,26,0.00,,,0.00,WSDL version 420,2013-02-09 20:48:00,
2013-02-09 14:54:00,50.5,16.9,29.80,ESE,113,1.8,3.6,26,0.00,,,0.00,WSDL version 420,2013-02-09 20:54:00,
2013-02-09 15:00:00,50.5,16.9,29.80,SSE,158,1.8,5.8,26,0.00,,,0.00,WSDL version 420,2013-02-09 21:00:00,
2013-02-09 15:06:00,50.7,17.1,29.80,ESE,115,1.5,4.3,26,0.00,,,0.00,WSDL version 420,2013-02-09 21:06:00,
2013-02-09 15:12:00,50.6,17.0,29.80,ENE,68,1.9,4.9,26,0.00,,,0.00,WSDL version 420,2013-02-09 21:12:00,
2013-02-09 15:18:00,50.4,16.8,29.80,East,90,1.5,2.9,26,0.00,,,0.00,WSDL version 420,2013-02-09 21:18:00,
2013-02-09 15:24:00,50.2,16.7,29.80,SSE,158,1.8,3.6,26,0.00,,,0.00,WSDL version 420,2013-02-09 21:24:00,
2013-02-09 15:30:00,50.2,16.6,29.77,ESE,113,1.5,4.0,26,0.00,,,0.00,WSDL version 420,2013-02-09 21:30:00,
2013-02-09 15:36:00,50.1,16.6,29.77,SE,135,2.0,4.0,26,0.00,,,0.00,WSDL version 420,2013-02-09 21:36:00,
2013-02-09 15:42:00,49.8,16.3,29.77,ESE,113,1.2,3.1,26,0.00,,,0.00,WSDL version 420,2013-02-09 21:42:00,
2013-02-09 15:48:00,49.8,16.3,29.77,ESE,113,1.1,2.2,26,0.00,,,0.00,WSDL version 420,2013-02-09 21:48:00,
2013-02-09 15:54:00,49.8,16.3,29.77,East,100,0.4,3.1,26,0.00,,,0.00,WSDL version 420,2013-02-09 21:54:00,
2013-02-09 16:00:00,49.6,16.2,29.77,East,90,0.7,3.1,26,0.00,,,0.00,WSDL version 420,2013-02-09 22:00:00,
2013-02-09 16:06:00,49.6,16.2,29.77,NE,45,0.9,2.2,26,0.00,,,0.00,WSDL version 420,2013-02-09 22:06:00,
2013-02-09 16:12:00,49.5,16.0,29.77,ENE,65,0.5,2.9,26,0.00,,,0.00,WSDL version 420,2013-02-09 22:12:00,
2013-02-09 16:18:00,49.5,16.0,29.77,WSW,248,0.4,2.9,26,0.00,,,0.00,WSDL version 420,2013-02-09 22:18:00,
2013-02-09 16:24:00,49.4,15.9,29.77,West,270,0.0,2.0,26,0.00,,,0.00,WSDL version 420,2013-02-09 22:24:00,
2013-02-09 16:30:00,49.3,15.8,29.74,West,270,0.0,1.1,26,0.00,,,0.00,WSDL version 420,2013-02-09 22:30:00,
2013-02-09 16:36:00,49.2,15.8,29.74,West,270,0.6,1.1,26,0.00,,,0.00,WSDL version 420,2013-02-09 22:36:00,
2013-02-09 16:42:00,49.1,15.7,29.77,West,270,0.4,1.3,26,0.00,,,0.00,WSDL version 420,2013-02-09 22:42:00,
2013-02-09 16:48:00,49.0,15.6,29.77,West,270,0.0,1.3,26,0.00,,,0.00,WSDL version 420,2013-02-09 22:48:00,
2013-02-09 16:54:00,48.9,15.5,29.77,WNW,293,0.3,2.5,26,0.00,,,0.00,WSDL version 420,2013-02-09 22:54:00,
2013-02-09 17:00:00,48.8,15.5,29.74,North,360,0.0,2.5,26,0.00,,,0.00,WSDL version 420,2013-02-09 23:00:00,
2013-02-09 17:06:00,48.7,15.4,29.74,North,360,1.1,2.0,26,0.00,,,0.00,WSDL version 420,2013-02-09 23:06:00,
2013-02-09 17:12:00,48.6,15.3,29.74,North,360,0.4,2.0,26,0.00,,,0.00,WSDL version 420,2013-02-09 23:12:00,
2013-02-09 17:18:00,48.5,15.2,29.74,North,360,0.4,1.6,26,0.00,,,0.00,WSDL version 420,2013-02-09 23:18:00,
2013-02-09 17:24:00,48.4,15.1,29.74,North,360,1.5,2.7,26,0.00,,,0.00,WSDL version 420,2013-02-09 23:24:00,
2013-02-09 17:30:00,48.2,14.9,29.74,NNE,23,0.7,2.9,26,0.00,,,0.00,WSDL version 420,2013-02-09 23:30:00,
2013-02-09 17:36:00,48.1,15.5,29.74,ESE,123,1.5,3.1,27,0.00,,,0.00,WSDL version 420,2013-02-09 23:36:00,
2013-02-09 17:42:00,47.9,15.6,29.74,SE,135,0.0,3.1,27,0.00,,,0.00,WSDL version 420,2013-02-09 23:42:00,
2013-02-09 17:48:00,47.8,15.5,29.74,SE,135,0.5,2.0,27,0.00,,,0.00,WSDL version 420,2013-02-09 23:48:00,
2013-02-09 17:54:00,47.7,15.3,29.74,SE,135,0.0,2.0,27,0.00,,,0.00,WSDL version 420,2013-02-09 23:54:00,
2013-02-09 18:00:00,47.5,15.2,29.74,SE,135,0.0,0.0,27,0.00,,,0.00,WSDL version 420,2013-02-10 00:00:00,
2013-02-09 18:06:00,47.3,15.0,29.74,SE,135,0.3,1.6,27,0.00,,,0.00,WSDL version 420,2013-02-10 00:06:00,
2013-02-09 18:12:00,47.3,15.0,29.74,SE,135,0.0,1.6,27,0.00,,,0.00,WSDL version 420,2013-02-10 00:12:00,
2013-02-09 18:18:00,47.1,14.9,29.74,SE,135,0.0,0.0,27,0.00,,,0.00,WSDL version 420,2013-02-10 00:18:00,
2013-02-09 18:24:00,46.9,14.7,29.74,SE,135,0.0,0.0,27,0.00,,,0.00,WSDL version 420,2013-02-10 00:24:00,
2013-02-09 18:30:00,46.8,14.6,29.74,SE,135,0.0,0.0,27,0.00,,,0.00,WSDL version 420,2013-02-10 00:30:00,
2013-02-09 18:36:00,46.6,14.9,29.74,SE,135,0.1,1.1,28,0.00,,,0.00,WSDL version 420,2013-02-10 00:36:00,
2013-02-09 18:42:00,46.3,15.0,29.74,SE,135,0.0,1.1,28,0.00,,,0.00,WSDL version 420,2013-02-10 00:42:00,
2013-02-09 18:48:00,46.1,14.8,29.74,SE,135,0.0,0.0,28,0.00,,,0.00,WSDL version 420,2013-02-10 00:48:00,
2013-02-09 18:54:00,46.0,14.8,29.74,SE,135,0.0,0.0,28,0.00,,,0.00,WSDL version 420,2013-02-10 00:54:00,
2013-02-09 19:00:00,45.9,15.1,29.74,SE,135,0.0,0.0,29,0.00,,,0.00,WSDL version 420,2013-02-10 01:00:00,
2013-02-09 19:06:00,45.7,15.2,29.74,SE,135,0.1,1.6,29,0.00,,,0.00,WSDL version 420,2013-02-10 01:06:00,
2013-02-09 19:12:00,45.5,15.1,29.71,SE,135,0.5,1.6,29,0.00,,,0.00,WSDL version 420,2013-02-10 01:12:00,
2013-02-09 19:18:00,45.4,15.0,29.71,SE,135,0.2,2.0,29,0.00,,,0.00,WSDL version 420,2013-02-10 01:18:00,
2013-02-09 19:24:00,45.3,14.9,29.71,SE,135,0.0,1.1,29,0.00,,,0.00,WSDL version 420,2013-02-10 01:24:00,
2013-02-09 19:30:00,45.3,14.9,29.74,SE,135,0.0,0.0,29,0.00,,,0.00,WSDL version 420,2013-02-10 01:30:00,
2013-02-09 19:36:00,45.3,14.9,29.74,SE,135,0.0,0.0,29,0.00,,,0.00,WSDL version 420,2013-02-10 01:36:00,
2013-02-09 19:42:00,45.1,15.0,29.74,SE,135,0.0,0.0,30,0.00,,,0.00,WSDL version 420,2013-02-10 01:42:00,
2013-02-09 19:48:00,45.1,15.6,29.74,SE,135,0.0,0.0,30,0.00,,,0.00,WSDL version 420,2013-02-10 01:48:00,
2013-02-09 19:54:00,45.0,15.4,29.74,SE,135,0.5,1.3,30,0.00,,,0.00,WSDL version 420,2013-02-10 01:54:00,
2013-02-09 20:00:00,44.9,15.1,29.74,SE,135,0.0,1.3,30,0.00,,,0.00,WSDL version 420,2013-02-10 02:00:00,
2013-02-09 20:06:00,44.8,15.2,29.74,SE,135,0.5,1.6,30,0.00,,,0.00,WSDL version 420,2013-02-10 02:06:00,
2013-02-09 20:12:00,44.8,15.2,29.74,SE,135,0.0,1.6,30,0.00,,,0.00,WSDL version 420,2013-02-10 02:12:00,
2013-02-09 20:18:00,44.7,15.2,29.74,SE,135,0.0,0.0,30,0.00,,,0.00,WSDL version 420,2013-02-10 02:18:00,
2013-02-09 20:24:00,44.6,15.1,29.74,SE,135,0.4,1.6,30,0.00,,,0.00,WSDL version 420,2013-02-10 02:24:00,
2013-02-09 20:30:00,44.6,15.1,29.71,SE,135,0.0,1.6,30,0.00,,,0.00,WSDL version 420,2013-02-10 02:30:00,
2013-02-09 20:36:00,44.4,15.7,29.71,SE,135,0.0,1.3,31,0.00,,,0.00,WSDL version 420,2013-02-10 02:36:00,
2013-02-09 20:42:00,44.5,15.5,29.71,SE,135,0.0,0.0,30,0.00,,,0.00,WSDL version 420,2013-02-10 02:42:00,
2013-02-09 20:48:00,44.6,15.6,29.71,SE,135,0.0,0.0,31,0.00,,,0.00,WSDL version 420,2013-02-10 02:48:00,
2013-02-09 20:54:00,44.6,16.0,29.71,SE,135,0.0,0.0,32,0.00,,,0.00,WSDL version 420,2013-02-10 02:54:00,
2013-02-09 21:00:00,44.4,15.7,29.71,SE,135,0.0,0.0,31,0.00,,,0.00,WSDL version 420,2013-02-10 03:00:00,
2013-02-09 21:06:00,44.6,15.8,29.71,SE,135,0.0,0.0,31,0.00,,,0.00,WSDL version 420,2013-02-10 03:06:00,
2013-02-09 21:12:00,44.6,16.1,29.71,SE,135,0.2,1.6,32,0.00,,,0.00,WSDL version 420,2013-02-10 03:12:00,
2013-02-09 21:18:00,44.6,16.6,29.71,SE,135,0.0,1.6,32,0.00,,,0.00,WSDL version 420,2013-02-10 03:18:00,
2013-02-09 21:24:00,44.6,16.6,29.71,SE,135,0.0,0.0,32,0.00,,,0.00,WSDL version 420,2013-02-10 03:24:00,
2013-02-09 21:30:00,44.6,16.3,29.71,SE,135,0.0,0.0,32,0.00,,,0.00,WSDL version 420,2013-02-10 03:30:00,
2013-02-09 21:36:00,44.6,16.6,29.71,SE,135,1.1,1.3,32,0.00,,,0.00,WSDL version 420,2013-02-10 03:36:00,
2013-02-09 21:42:00,44.6,16.6,29.71,SE,135,1.1,1.6,32,0.00,,,0.00,WSDL version 420,2013-02-10 03:42:00,
2013-02-09 21:48:00,44.8,16.9,29.71,SE,135,0.0,2.0,33,0.00,,,0.00,WSDL version 420,2013-02-10 03:48:00,
2013-02-09 21:54:00,44.8,17.4,29.71,SE,135,0.1,2.0,33,0.00,,,0.00,WSDL version 420,2013-02-10 03:54:00,
2013-02-09 22:00:00,44.8,17.6,29.68,SE,135,2.3,3.1,33,0.00,,,0.00,WSDL version 420,2013-02-10 04:00:00,
2013-02-09 22:06:00,45.0,17.5,29.68,SE,135,0.5,3.1,33,0.00,,,0.00,WSDL version 420,2013-02-10 04:06:00,
2013-02-09 22:12:00,45.3,17.9,29.68,SSE,149,2.8,3.8,33,0.00,,,0.00,WSDL version 420,2013-02-10 04:12:00,
2013-02-09 22:18:00,45.6,17.4,29.68,SSE,148,3.9,5.6,32,0.00,,,0.00,WSDL version 420,2013-02-10 04:18:00,
2013-02-09 22:24:00,46.1,17.9,29.68,SE,143,4.3,5.8,32,0.00,,,0.00,WSDL version 420,2013-02-10 04:24:00,
2013-02-09 22:30:00,46.4,17.4,29.68,SE,138,3.5,5.8,31,0.00,,,0.00,WSDL version 420,2013-02-10 04:30:00,
2013-02-09 22:36:00,46.5,17.5,29.68,SE,135,3.5,6.3,31,0.00,,,0.00,WSDL version 420,2013-02-10 04:36:00,
2013-02-09 22:42:00,46.7,17.7,29.68,SE,138,4.8,6.3,31,0.00,,,0.00,WSDL version 420,2013-02-10 04:42:00,
2013-02-09 22:48:00,46.8,17.8,29.68,SE,138,3.6,5.8,31,0.00,,,0.00,WSDL version 420,2013-02-10 04:48:00,
2013-02-09 22:54:00,46.9,17.9,29.68,SE,135,4.2,5.6,31,0.00,,,0.00,WSDL version 420,2013-02-10 04:54:00,
2013-02-09 23:00:00,47.0,17.8,29.65,SE,135,3.2,6.3,31,0.00,,,0.00,WSDL version 420,2013-02-10 05:00:00,
2013-02-09 23:06:00,47.1,17.8,29.65,SE,135,3.6,6.0,31,0.00,,,0.00,WSDL version 420,2013-02-10 05:06:00,
2013-02-09 23:12:00,47.1,18.0,29.65,SE,138,3.1,6.0,31,0.00,,,0.00,WSDL version 420,2013-02-10 05:12:00,
2013-02-09 23:18:00,47.1,18.0,29.65,SSE,153,4.2,7.2,31,0.00,,,0.00,WSDL version 420,2013-02-10 05:18:00,
2013-02-09 23:24:00,47.3,18.2,29.65,SE,145,4.3,7.2,31,0.00,,,0.00,WSDL version 420,2013-02-10 05:24:00,
2013-02-09 23:30:00,47.3,18.2,29.65,SE,135,5.2,8.5,31,0.00,,,0.00,WSDL version 420,2013-02-10 05:30:00,
2013-02-09 23:36:00,47.5,18.4,29.65,SE,138,4.6,8.5,31,0.00,,,0.00,WSDL version 420,2013-02-10 05:36:00,
2013-02-09 23:42:00,47.7,18.5,29.65,SE,132,4.4,7.4,31,0.00,,,0.00,WSDL version 420,2013-02-10 05:42:00,
2013-02-09 23:48:00,47.8,18.5,29.65,SE,141,5.5,7.6,30,0.00,,,0.00,WSDL version 420,2013-02-10 05:48:00,
2013-02-09 23:54:00,48.0,18.5,29.65,SE,145,4.3,7.6,30,0.00,,,0.00,WSDL version 420,2013-02-10 05:54:00,